Starlink 1123

operational
NORAD ID: 44930 Int'l Des: 2020-001 Owner: SPXS Country: US Constellation: starlink
LEOCIRCULARSTARLINK_TYPE

Über Starlink 1123

Beschreibung wird geladen...

Live-Position

3D-Globus wird geladen...

Nächste Überflüge

Höhenverlauf

Altitude vs Time

uPlot chart will show altitude changes over time

Zweizeiliger Elementsatz

1 44930U 20001S 25349.46281013 .00005163 00000-0 36535-3 0 9991
2 44930 53.0553 4.7286 0001469 79.3807 280.7347 15.06388702327153
Epoch: 15. Dez. 2025 • Age: 24 hours

Aktueller Status

Höhe 559.9 km
Geschwindigkeit 7.58 km/s
Subsatellitenpunkt -37.19°S, 78.76°E
Startdatum 7. Jan. 2020
Alter 5.9 years
Typ internet

Technische Details

Klassifizierung Payload
Masse 260.00 kg
Trockenmasse 248.00 kg
Gesamtmasse 260.00 kg
Länge 0.20 m
Durchmesser 2.80 m
Spannweite 9.00 m
Form Box + pan
Hersteller SPXS
Bus-Typ Starlink
Phasenstatus In Orbit
Besitzer/Staat SPXS/US

Große Konstellationen

Loading constellations...